DEMAR EDDH-EDAH

Flight info

Callsign DEMAR
Flight time 0h 56m
Altitude 19000
Route RAMAR6G RAMAR L23 UDAXI
Aircraft BT36/L-BDFGLORY/S

Departure

Time 2026-04-22 19:38
Airport Hamburg Helmut Schmidt Airport (EDDH)

Arrival

Time 2026-04-22 20:34
Airport Heringsdorf Airport (EDAH)
Time Latitude Longitude Altitude Speed Heading
2026-04-22 19:28 53.62616 9.98908 41 ft 0 kts 243°
2026-04-22 19:32 53.62616 9.98904 41 ft 3 kts 253°
2026-04-22 19:32 53.62649 9.98921 41 ft 17 kts 348°
2026-04-22 19:32 53.62787 9.98800 41 ft 25 kts 332°
2026-04-22 19:33 53.62888 9.98946 41 ft 18 kts 56°
2026-04-22 19:33 53.62984 9.99149 41 ft 30 kts 51°
2026-04-22 19:33 53.63107 9.99299 41 ft 19 kts 12°
2026-04-22 19:33 53.63149 9.99319 41 ft 0 kts 15°
2026-04-22 19:36 53.63162 9.99325 41 ft 10 kts 16°
2026-04-22 19:36 53.63292 9.99358 41 ft 20 kts 351°
2026-04-22 19:36 53.63368 9.99311 41 ft 0 kts 332°
2026-04-22 19:36 53.63377 9.99303 41 ft 9 kts 332°
2026-04-22 19:37 53.63395 9.99287 41 ft 0 kts 333°
2026-04-22 19:37 53.63397 9.99286 41 ft 4 kts 334°
2026-04-22 19:37 53.63612 9.99098 42 ft 79 kts 331°
2026-04-22 19:38 53.64223 9.98595 386 ft 102 kts 328°
2026-04-22 19:38 53.64848 9.98017 971 ft 111 kts 328°
2026-04-22 19:38 53.65614 9.97383 1283 ft 129 kts 332°
2026-04-22 19:38 53.66425 9.96699 1686 ft 131 kts 332°
2026-04-22 19:39 53.67241 9.95998 2087 ft 132 kts 332°
2026-04-22 19:39 53.68063 9.95290 2475 ft 132 kts 332°
2026-04-22 19:39 53.68903 9.94672 2855 ft 134 kts 348°
2026-04-22 19:39 53.69839 9.94683 3239 ft 135 kts 358°
2026-04-22 19:40 53.70782 9.94686 3623 ft 135 kts 358°
2026-04-22 19:40 53.71724 9.94688 4000 ft 135 kts 358°
2026-04-22 19:40 53.72652 9.94692 4374 ft 135 kts 359°
2026-04-22 19:40 53.73533 9.95172 4751 ft 141 kts 38°
2026-04-22 19:41 53.74057 9.96602 5141 ft 145 kts 59°
2026-04-22 19:41 53.74495 9.98135 5518 ft 144 kts 58°
2026-04-22 19:41 53.74932 9.99655 5899 ft 144 kts 58°
2026-04-22 19:41 53.75370 10.01173 6283 ft 144 kts 59°
2026-04-22 19:42 53.75807 10.02686 6666 ft 143 kts 59°
2026-04-22 19:42 53.76243 10.04200 7034 ft 143 kts 59°
2026-04-22 19:42 53.76678 10.05705 7399 ft 142 kts 59°
2026-04-22 19:42 53.77111 10.07207 7765 ft 142 kts 59°
2026-04-22 19:43 53.77974 10.10205 8515 ft 141 kts 59°
2026-04-22 19:43 53.78405 10.11700 8906 ft 141 kts 59°
2026-04-22 19:43 53.78834 10.13192 9285 ft 141 kts 59°
2026-04-22 19:44 53.79262 10.14681 9676 ft 140 kts 59°
2026-04-22 19:44 53.79695 10.16179 9958 ft 148 kts 59°
2026-04-22 19:44 53.80149 10.17772 10185 ft 151 kts 59°
2026-04-22 19:44 53.80602 10.19351 10431 ft 151 kts 60°
2026-04-22 19:45 53.81062 10.20951 10674 ft 151 kts 60°
2026-04-22 19:45 53.81520 10.22553 10915 ft 151 kts 59°
2026-04-22 19:45 53.81988 10.24176 11164 ft 155 kts 60°
2026-04-22 19:45 53.82461 10.25834 11415 ft 158 kts 60°
2026-04-22 19:46 53.82940 10.27511 11669 ft 158 kts 60°
2026-04-22 19:46 53.83420 10.29194 11915 ft 159 kts 61°
2026-04-22 19:46 53.83900 10.30875 12171 ft 159 kts 61°
2026-04-22 19:46 53.84381 10.32560 12417 ft 159 kts 61°
2026-04-22 19:47 53.84801 10.34291 12666 ft 162 kts 77°
2026-04-22 19:47 53.84646 10.36209 12924 ft 167 kts 99°
2026-04-22 19:47 53.84468 10.37475 13101 ft 167 kts 98°
2026-04-22 19:47 53.84124 10.40034 13452 ft 167 kts 98°
2026-04-22 19:48 53.83865 10.41943 13720 ft 166 kts 98°
2026-04-22 19:48 53.83606 10.43850 13991 ft 166 kts 98°
2026-04-22 19:48 53.83346 10.45752 14240 ft 166 kts 98°
2026-04-22 19:48 53.83088 10.47654 14478 ft 166 kts 98°
2026-04-22 19:49 53.82832 10.49530 14720 ft 166 kts 98°
2026-04-22 19:49 53.82572 10.51439 14966 ft 167 kts 98°
2026-04-22 19:49 53.82313 10.53354 15209 ft 167 kts 98°
2026-04-22 19:49 53.82054 10.55269 15453 ft 167 kts 98°
2026-04-22 19:50 53.81790 10.57185 15698 ft 167 kts 99°
2026-04-22 19:50 53.81525 10.59107 15948 ft 167 kts 99°
2026-04-22 19:50 53.81261 10.61024 16200 ft 167 kts 99°
2026-04-22 19:50 53.80997 10.62946 16454 ft 168 kts 99°
2026-04-22 19:51 53.80731 10.64883 16633 ft 172 kts 99°
2026-04-22 19:51 53.80455 10.66879 16766 ft 176 kts 99°
2026-04-22 19:51 53.80174 10.68906 16899 ft 178 kts 100°
2026-04-22 19:51 53.79660 10.70805 17027 ft 183 kts 119°
2026-04-22 19:52 53.78968 10.72611 17161 ft 183 kts 118°
2026-04-22 19:52 53.78287 10.74438 17295 ft 184 kts 118°
2026-04-22 19:52 53.77610 10.76271 17429 ft 184 kts 118°
2026-04-22 19:52 53.76931 10.78108 17558 ft 184 kts 118°
2026-04-22 19:53 53.76252 10.79944 17704 ft 184 kts 118°
2026-04-22 19:53 53.75572 10.81780 17835 ft 184 kts 118°
2026-04-22 19:53 53.75123 10.82987 17994 ft 181 kts 118°
2026-04-22 19:53 53.74242 10.85365 18343 ft 176 kts 118°
2026-04-22 19:54 53.73594 10.87112 18611 ft 175 kts 118°
2026-04-22 19:54 53.72949 10.88844 18845 ft 174 kts 118°
2026-04-22 19:54 53.72307 10.90574 19079 ft 173 kts 118°
2026-04-22 19:54 53.71666 10.92294 19310 ft 173 kts 118°
2026-04-22 19:55 53.71124 10.94150 19328 ft 180 kts 98°
2026-04-22 19:55 53.71141 10.96246 19338 ft 183 kts 84°
2026-04-22 19:55 53.71216 10.98416 19346 ft 187 kts 85°
2026-04-22 19:55 53.71290 11.00643 19344 ft 193 kts 84°
2026-04-22 19:56 53.71359 11.02924 19344 ft 196 kts 84°
2026-04-22 19:56 53.71428 11.05230 19343 ft 198 kts 84°
2026-04-22 19:56 53.71498 11.07552 19343 ft 198 kts 84°
2026-04-22 19:56 53.71567 11.09880 19342 ft 199 kts 84°
2026-04-22 19:57 53.71637 11.12214 19336 ft 199 kts 84°
2026-04-22 19:57 53.71707 11.14551 19336 ft 199 kts 84°
2026-04-22 19:57 53.71775 11.16885 19335 ft 199 kts 85°
2026-04-22 19:57 53.71843 11.19218 19334 ft 199 kts 85°
2026-04-22 19:58 53.71911 11.21556 19331 ft 199 kts 84°
2026-04-22 19:58 53.71978 11.23897 19329 ft 199 kts 85°
2026-04-22 19:58 53.72045 11.26232 19327 ft 199 kts 85°
2026-04-22 19:58 53.72111 11.28574 19327 ft 199 kts 85°
2026-04-22 19:59 53.72177 11.30912 19327 ft 199 kts 85°
2026-04-22 20:00 53.72563 11.44927 19318 ft 199 kts 85°
2026-04-22 20:00 53.72624 11.47266 19319 ft 199 kts 85°
2026-04-22 20:01 53.72683 11.49606 19319 ft 199 kts 85°
2026-04-22 20:01 53.72742 11.51947 19319 ft 200 kts 85°
2026-04-22 20:01 53.72802 11.54285 19313 ft 200 kts 84°
2026-04-22 20:01 53.72859 11.56631 19313 ft 200 kts 84°
2026-04-22 20:02 53.72913 11.58977 19313 ft 200 kts 84°
2026-04-22 20:02 53.72970 11.61315 19313 ft 200 kts 84°
2026-04-22 20:02 53.73026 11.63659 19314 ft 200 kts 84°
2026-04-22 20:02 53.73082 11.66004 19314 ft 200 kts 84°
2026-04-22 20:03 53.73137 11.68347 19311 ft 200 kts 84°
2026-04-22 20:03 53.73192 11.70694 19311 ft 200 kts 84°
2026-04-22 20:03 53.73246 11.73035 19311 ft 200 kts 84°
2026-04-22 20:03 53.73300 11.75379 19305 ft 200 kts 84°
2026-04-22 20:04 53.73335 11.76935 19308 ft 200 kts 84°
2026-04-22 20:04 53.73388 11.79277 19308 ft 199 kts 84°
2026-04-22 20:04 53.73441 11.81620 19308 ft 199 kts 84°
2026-04-22 20:04 53.73510 11.84717 19308 ft 199 kts 84°
2026-04-22 20:05 53.73566 11.87058 19305 ft 199 kts 84°
2026-04-22 20:05 53.73622 11.89396 19305 ft 199 kts 84°
2026-04-22 20:05 53.73659 11.90978 19305 ft 199 kts 84°
2026-04-22 20:05 53.73713 11.93318 19305 ft 199 kts 84°
2026-04-22 20:06 53.73767 11.95661 19305 ft 200 kts 84°
2026-04-22 20:06 53.73820 11.98002 19300 ft 200 kts 84°
2026-04-22 20:06 53.73872 12.00345 19300 ft 200 kts 84°
2026-04-22 20:06 53.73925 12.02689 19300 ft 200 kts 84°
2026-04-22 20:07 53.73977 12.05033 19300 ft 200 kts 84°
2026-04-22 20:07 53.74029 12.07349 19302 ft 200 kts 83°
2026-04-22 20:07 53.74081 12.09694 19299 ft 200 kts 84°
2026-04-22 20:07 53.74130 12.12039 19299 ft 200 kts 84°
2026-04-22 20:08 53.74181 12.14384 19297 ft 199 kts 84°
2026-04-22 20:08 53.74236 12.16726 19297 ft 199 kts 84°
2026-04-22 20:08 53.74290 12.19069 19290 ft 199 kts 84°
2026-04-22 20:08 53.74343 12.21407 19291 ft 199 kts 84°
2026-04-22 20:09 53.74395 12.23750 19293 ft 199 kts 84°
2026-04-22 20:09 53.74447 12.26092 19293 ft 199 kts 84°
2026-04-22 20:09 53.74498 12.28430 19293 ft 199 kts 84°
2026-04-22 20:09 53.74550 12.30771 19293 ft 199 kts 84°
2026-04-22 20:10 53.74599 12.33111 19290 ft 199 kts 84°
2026-04-22 20:10 53.74650 12.35426 19290 ft 199 kts 84°
2026-04-22 20:10 53.74699 12.37768 19290 ft 199 kts 84°
2026-04-22 20:10 53.74748 12.40109 19288 ft 199 kts 84°
2026-04-22 20:11 53.74797 12.42451 19292 ft 199 kts 84°
2026-04-22 20:11 53.74845 12.44796 19292 ft 199 kts 84°
2026-04-22 20:11 53.74893 12.47137 19292 ft 199 kts 84°
2026-04-22 20:11 53.74932 12.49479 19292 ft 199 kts 84°
2026-04-22 20:12 53.74963 12.51821 19291 ft 199 kts 84°
2026-04-22 20:12 53.74996 12.54161 19291 ft 199 kts 84°
2026-04-22 20:12 53.75030 12.56504 19291 ft 199 kts 84°
2026-04-22 20:12 53.75064 12.58846 19291 ft 199 kts 84°
2026-04-22 20:13 53.75099 12.61188 19295 ft 200 kts 83°
2026-04-22 20:13 53.75135 12.63538 19290 ft 200 kts 84°
2026-04-22 20:13 53.75163 12.65884 19294 ft 200 kts 84°
2026-04-22 20:13 53.75192 12.68232 19291 ft 200 kts 84°
2026-04-22 20:14 53.75223 12.70576 19286 ft 199 kts 84°
2026-04-22 20:14 53.75255 12.72919 19286 ft 199 kts 84°
2026-04-22 20:14 53.75286 12.75262 19286 ft 199 kts 84°
2026-04-22 20:14 53.75317 12.77603 19286 ft 199 kts 84°
2026-04-22 20:15 53.75347 12.79947 19288 ft 199 kts 84°
2026-04-22 20:15 53.75383 12.82259 19283 ft 199 kts 84°
2026-04-22 20:15 53.75420 12.84606 19283 ft 199 kts 84°
2026-04-22 20:15 53.75455 12.86951 19283 ft 199 kts 84°
2026-04-22 20:16 53.75489 12.89293 19280 ft 199 kts 84°
2026-04-22 20:16 53.75523 12.91637 19283 ft 199 kts 84°
2026-04-22 20:16 53.75556 12.93983 19280 ft 199 kts 84°
2026-04-22 20:16 53.75589 12.96326 19280 ft 199 kts 84°
2026-04-22 20:17 53.75621 12.98673 19280 ft 199 kts 84°
2026-04-22 20:17 53.75654 13.01018 19280 ft 199 kts 84°
2026-04-22 20:17 53.75688 13.03395 19110 ft 207 kts 84°
2026-04-22 20:17 53.75721 13.05856 18872 ft 211 kts 84°
2026-04-22 20:18 53.75755 13.08318 18644 ft 214 kts 84°
2026-04-22 20:18 53.75788 13.10833 18391 ft 214 kts 84°
2026-04-22 20:18 53.75820 13.13355 18122 ft 215 kts 84°
2026-04-22 20:18 53.75856 13.15871 17868 ft 214 kts 83°
2026-04-22 20:19 53.75885 13.18386 17605 ft 214 kts 84°
2026-04-22 20:19 53.75912 13.20897 17340 ft 213 kts 83°
2026-04-22 20:19 53.75939 13.23383 17006 ft 198 kts 84°
2026-04-22 20:19 53.75932 13.25433 16463 ft 158 kts 82°
2026-04-22 20:20 53.75961 13.27190 15924 ft 144 kts 80°
2026-04-22 20:20 53.75990 13.28848 15404 ft 139 kts 80°
2026-04-22 20:20 53.76012 13.30479 14904 ft 138 kts 80°
2026-04-22 20:20 53.76032 13.32099 14416 ft 137 kts 80°
2026-04-22 20:21 53.76049 13.33704 13928 ft 136 kts 79°
2026-04-22 20:21 53.76066 13.35304 13397 ft 136 kts 79°
2026-04-22 20:21 53.76083 13.36880 12885 ft 136 kts 79°
2026-04-22 20:21 53.76100 13.38473 12375 ft 135 kts 79°
2026-04-22 20:22 53.76116 13.40065 11874 ft 135 kts 78°
2026-04-22 20:22 53.76128 13.41618 11365 ft 131 kts 78°
2026-04-22 20:22 53.76154 13.43206 10784 ft 143 kts 78°
2026-04-22 20:22 53.76170 13.44944 10082 ft 151 kts 79°
2026-04-22 20:23 53.76184 13.46735 9308 ft 153 kts 79°
2026-04-22 20:23 53.76201 13.48544 8553 ft 154 kts 80°
2026-04-22 20:23 53.76229 13.50446 7817 ft 181 kts 80°
2026-04-22 20:23 53.76249 13.52615 7106 ft 181 kts 83°
2026-04-22 20:24 53.76254 13.54714 6379 ft 177 kts 82°
2026-04-22 20:24 53.76272 13.56789 5623 ft 176 kts 82°
2026-04-22 20:24 53.76273 13.58851 4872 ft 175 kts 83°
2026-04-22 20:24 53.76266 13.60872 4119 ft 174 kts 82°
2026-04-22 20:25 53.76260 13.62803 3930 ft 155 kts 81°
2026-04-22 20:25 53.76261 13.64588 3790 ft 149 kts 81°
2026-04-22 20:25 53.76259 13.66327 3655 ft 147 kts 80°
2026-04-22 20:25 53.76275 13.68218 3553 ft 179 kts 76°
2026-04-22 20:26 53.76322 13.70426 3454 ft 192 kts 73°
2026-04-22 20:26 53.76329 13.72763 3351 ft 200 kts 84°
2026-04-22 20:26 53.76497 13.75011 3268 ft 187 kts 56°
2026-04-22 20:26 53.77295 13.76596 3272 ft 174 kts 33°
2026-04-22 20:27 53.78146 13.78083 3272 ft 179 kts 44°
2026-04-22 20:27 53.78688 13.79776 3257 ft 148 kts 55°
2026-04-22 20:27 53.79080 13.81276 3253 ft 133 kts 52°
2026-04-22 20:27 53.79451 13.82670 3254 ft 128 kts 52°
2026-04-22 20:28 53.79812 13.84044 3252 ft 127 kts 52°
2026-04-22 20:28 53.80169 13.85418 3250 ft 128 kts 52°
2026-04-22 20:28 53.80525 13.86786 3250 ft 127 kts 53°
2026-04-22 20:28 53.80879 13.88148 3248 ft 124 kts 53°
2026-04-22 20:29 53.81208 13.89423 3250 ft 115 kts 51°
2026-04-22 20:29 53.81519 13.90625 3258 ft 104 kts 51°
2026-04-22 20:29 53.81782 13.91657 3254 ft 92 kts 47°
2026-04-22 20:29 53.82041 13.92637 3249 ft 90 kts 47°
2026-04-22 20:30 53.82342 13.93612 3245 ft 99 kts 39°
2026-04-22 20:30 53.82809 13.94627 3139 ft 119 kts 38°
2026-04-22 20:30 53.83325 13.95784 2832 ft 126 kts 41°
2026-04-22 20:30 53.83846 13.96934 2724 ft 122 kts 40°
2026-04-22 20:31 53.84325 13.98147 2551 ft 127 kts 46°
2026-04-22 20:31 53.84794 13.99365 2349 ft 128 kts 47°
2026-04-22 20:31 53.85279 14.00610 2072 ft 127 kts 40°
2026-04-22 20:31 53.85823 14.01812 1688 ft 130 kts 41°
2026-04-22 20:32 53.86362 14.02999 1549 ft 124 kts 41°
2026-04-22 20:32 53.86926 14.04119 1305 ft 128 kts 36°
2026-04-22 20:32 53.87502 14.05259 1165 ft 128 kts 36°
2026-04-22 20:32 53.87992 14.06551 1020 ft 136 kts 64°
2026-04-22 20:33 53.88315 14.08067 838 ft 138 kts 59°
2026-04-22 20:33 53.88674 14.09531 832 ft 132 kts 74°
2026-04-22 20:33 53.88534 14.11161 530 ft 150 kts 100°
2026-04-22 20:33 53.88324 14.12566 209 ft 105 kts 106°
2026-04-22 20:34 53.88136 14.13593 86 ft 83 kts 103°
2026-04-22 20:34 53.87986 14.14522 71 ft 73 kts 102°
2026-04-22 20:34 53.87931 14.14881 71 ft 12 kts 102°
2026-04-22 20:34 53.87903 14.15075 72 ft 31 kts 102°
2026-04-22 20:35 53.87837 14.15267 74 ft 18 kts 197°
2026-04-22 20:35 53.87762 14.15178 73 ft 17 kts 272°
2026-04-22 20:35 53.87772 14.14944 73 ft 19 kts 240°